sat.trackr.live / text

‹ back to catalog

STARLINK-34138

NORAD 63971 · 2025-099V

PAYLOAD ACTIVE UNKNOWN

§ Identity

Operator
Country
US
Launch date
2025-05-13
Launch site
AFETR
Launch vehicle
Mass (kg)
RCS (m²)

Purposes: comms

External: N2YO · Heavens-Above · Gunter

§ Orbital elements

Epoch: 2026-05-25T04:08:07.271232Z

Period
94.27 min
Inclination
42.9984°
Eccentricity
0.0001126
Mean motion
15.27590924 rev/d
Perigee alt
482.2 km
Apogee alt
483.8 km
Semi-major
6,861.2 km
B*
4.7774e-4
RAAN
100.7862°
Arg perigee
275.4217°
Mean anomaly
84.6506°
Rev number
5,907

§ Raw data

STARLINK-341381 63971U 25099V   26145.17230638  .00012912  00000+0  47774-3 0  99952 63971  42.9984 100.7862 0001126 275.4217  84.6506 15.27590924 59070

JSON: /api/v1/satellites/63971 · /tle

For live sub-satellite position, see the globe view (requires WebGL).

§ Visibility from observer

Set your observer location to see the next 7 days of passes ≥ 10°. The values pass through the URL so the page stays shareable.

No JS? Fill the form by hand. The geolocation button needs JavaScript.